Location: Ústí nad Labem
(50.6611°N, 14.0531°E)
Time: 01:02:20
(UTC+02:00)

S-56A Canister/Altair - Pass Details

Date: 18 April 2024
Orbit: 638 x 2488 km, 38.9° (Epoch: 28 May)

Event Time Altitude Azimuth Distance (km) Brightness Sun altitude
Rises 22:04:32 0° 262° (W) 3,968 11.8 -17.0°
Reaches altitude 10° 22:07:11 10° 253° (WSW) 3,233 11.1 -17.3°
Maximum altitude 22:14:32 35° 191° (S) 2,382 9.7 -18.1°
Enters shadow 22:19:43 24° 149° (SSE) 3,230 10.1 -18.7°
